Weather History for Greenwood, SC

Change the Weather History Date:

Thursday, October 13, 2011

  Actual Average (KAND) Record (KAND)
Temperature  
Mean Temperature 68 °F -  
Max Temperature 75 °F 75 °F 89 °F (1954)
Min Temperature 59 °F 51 °F 32 °F (1988)
Cooling Degree Days 2    
Growing Degree Days 18 (Base 50)    
Moisture  
Dew Point 62 °F    
Average Humidity 88    
Maximum Humidity 100    
Minimum Humidity 56    
Precipitation  
Precipitation 0.04 in - - ()
Sea Level Pressure  
Sea Level Pressure 29.72 in    
Wind  
Wind Speed 7 mph (SW)    
Max Wind Speed 15 mph    
Max Gust Speed 24 mph    
Visibility 8 miles    
Events Rain    
Averages and records for this station are not official NWS values.
T = Trace of Precipitation, MM = Missing Value Source: NWS Daily Summary

Daily Weather History Graph

Daily Weather History Graph

Search for Another Location

Airport:

Trip Planner

Search our weather history database for the weather conditions in past years. The results will help you decide how hot, cold, wet, or windy it might be!

Date:

Astronomy

Oct. 13, 2011 Rise Set
Actual Time 7:32 AM EDT 6:57 PM EDT
Civil Twilight 7:06 AM EDT 7:22 PM EDT
Nautical Twilight 6:37 AM EDT 7:51 PM EDT
Astronomical Twilight 6:08 AM EDT 8:20 PM EDT
Moon 7:39 PM EDT (10/13) 8:56 AM EDT (10/13)
Length of Visible Light 12h 15m
Length of Day
11h 25m
Full, 98% of the Moon is Illuminated
Oct 13
Full
Oct 19
Last Quarter
Oct 26
New
Nov 2
First Quarter
Nov 10
Full

Hourly Weather History & Observations

Time (EDT) Temp. Dew Point Humidity Pressure Visibility Wind Dir Wind Speed Gust Speed Precip Events Conditions
12:22 AM 66.2 °F 64.4 °F 94% 29.81 in 10.0 mi SSW 4.6 mph - N/A   Overcast
12:32 AM 66.2 °F 64.4 °F 94% 29.81 in 10.0 mi SSW 4.6 mph - N/A   Overcast
12:56 AM 66.0 °F 64.0 °F 93% 29.78 in 10.0 mi SW 4.6 mph - N/A   Overcast
1:56 AM 66.0 °F 64.0 °F 93% 29.77 in 10.0 mi SW 4.6 mph - N/A   Overcast
2:20 AM 66.2 °F 64.4 °F 94% 29.78 in 8.0 mi SW 6.9 mph - 0.00 in Rain Light Rain
2:36 AM 64.4 °F 64.4 °F 100% 29.77 in 6.0 mi SSW 4.6 mph - 0.00 in Rain Light Rain
2:56 AM 64.9 °F 64.0 °F 97% 29.75 in 9.0 mi SW 4.6 mph - 0.00 in   Overcast
3:12 AM 64.4 °F 64.4 °F 100% 29.76 in 8.0 mi WSW 5.8 mph - N/A   Overcast
3:56 AM 64.9 °F 64.0 °F 97% 29.73 in 5.0 mi WSW 4.6 mph - N/A   Overcast
4:56 AM 64.9 °F 64.0 °F 97% 29.72 in 10.0 mi SW 4.6 mph - N/A   Overcast
5:56 AM 64.9 °F 64.0 °F 97% 29.73 in 8.0 mi SW 6.9 mph - N/A   Overcast
6:22 AM 64.4 °F 64.4 °F 100% 29.74 in 10.0 mi SW 4.6 mph - 0.00 in   Overcast
6:56 AM 64.0 °F 63.0 °F 96% 29.73 in 3.0 mi SW 6.9 mph - 0.01 in Rain Light Rain
7:56 AM 64.0 °F 63.0 °F 96% 29.73 in 9.0 mi SW 5.8 mph - 0.00 in   Overcast
8:03 AM 64.4 °F 62.6 °F 94% 29.74 in 10.0 mi SW 9.2 mph - N/A   Overcast
8:16 AM 64.4 °F 62.6 °F 94% 29.74 in 10.0 mi SW 8.1 mph - N/A   Overcast
8:36 AM 64.4 °F 62.6 °F 94% 29.75 in 2.5 mi SW 10.4 mph - 0.00 in Rain Light Rain
8:43 AM 64.4 °F 62.6 °F 94% 29.75 in 5.0 mi SW 11.5 mph - 0.00 in   Overcast
8:53 AM 64.4 °F 62.6 °F 94% 29.75 in 2.0 mi SW 10.4 mph - 0.00 in Rain Light Rain
8:56 AM 64.9 °F 63.0 °F 93% 29.73 in 2.5 mi SW 9.2 mph - 0.00 in Rain Light Rain
8:59 AM 64.4 °F 62.6 °F 94% 29.74 in 3.0 mi SW 9.2 mph - 0.00 in Rain Light Rain
9:41 AM 64.4 °F 62.6 °F 94% 29.74 in 10.0 mi SW 10.4 mph - 0.00 in   Overcast
9:56 AM 66.0 °F 63.0 °F 90% 29.73 in 10.0 mi SW 10.4 mph - 0.00 in   Overcast
10:26 AM 66.2 °F 62.6 °F 88% 29.74 in 10.0 mi SSW 9.2 mph - N/A   Overcast
10:56 AM 68.0 °F 63.0 °F 84% 29.72 in 10.0 mi SW 9.2 mph - N/A   Overcast
11:56 AM 68.0 °F 62.1 °F 81% 29.72 in 10.0 mi SW 11.5 mph 17.3 mph N/A   Overcast
12:52 PM 71.6 °F 62.6 °F 73% 29.73 in 10.0 mi SSW 12.7 mph 19.6 mph N/A   Mostly Cloudy
12:56 PM 71.1 °F 61.0 °F 70% 29.71 in 10.0 mi SSW 15.0 mph 20.7 mph N/A   Mostly Cloudy
1:56 PM 73.0 °F 61.0 °F 66% 29.67 in 10.0 mi SW 12.7 mph 21.9 mph N/A   Mostly Cloudy
2:56 PM 75.0 °F 60.1 °F 60% 29.64 in 10.0 mi SSW 13.8 mph 24.2 mph N/A   Scattered Clouds
3:56 PM 75.0 °F 59.0 °F 57% 29.62 in 10.0 mi SW 11.5 mph 20.7 mph N/A   Mostly Cloudy
4:56 PM 75.9 °F 59.0 °F 56% 29.61 in 10.0 mi SW 12.7 mph - N/A   Scattered Clouds
5:56 PM 72.0 °F 57.9 °F 61% 29.62 in 10.0 mi SW 11.5 mph - N/A   Clear
6:56 PM 63.0 °F 60.1 °F 90% 29.63 in 10.0 mi SW 3.5 mph - 0.01 in   Scattered Clouds
7:56 PM 62.1 °F 59.0 °F 90% 29.65 in 10.0 mi WSW 5.8 mph - N/A   Partly Cloudy
8:56 PM 61.0 °F 57.9 °F 90% 29.68 in 10.0 mi SW 8.1 mph - 0.01 in Rain Light Rain
9:56 PM 60.1 °F 57.0 °F 90% 29.68 in 10.0 mi SW 8.1 mph - 0.01 in   Scattered Clouds
10:56 PM 60.1 °F 57.9 °F 93% 29.67 in 10.0 mi WSW 10.4 mph - N/A   Mostly Cloudy
11:56 PM 59.0 °F 57.0 °F 93% 29.67 in 10.0 mi WSW 10.4 mph - 0.00 in   Clear